Время (UTC), дата Ветер
(°,м/с) 
Видим.   Явления Облачность Т
(°С)
Тd
(°С)
f(%) Тe
(°С)
Pmin
(гПа)
dP
(гПа)
Po
(мм)
O2
(г/м3)
Тmin Tmax R s Состояние
почвы
00 01.11.13 350 (С) 0300 м  туман  ?/?  
+8.9 +8.4 97 +8  1027.9  1.2  730  283           
03 01.11.13 030 (СВ) 2000 м  дымка{морось, туман}  10/10 100 м 
[St]
+7 +6.6 97 +6  1029.7  1.3  731  286  +7    0.0     
06 01.11.13 090 (В) 20000 м  {морось, туман}  3/3 600 м 
[Sc]
+7.4 +5.8 90 +6  1030.7  732  286  +5.5         
09 01.11.13 090 (В) 20000 м  {морось, туман}  3/3 600 м 
[Sc]
+7.4 +5.8 90 +6  1030.7  732  286  +5.5         
12 01.11.13 090 (В) 20000 м    3/3 600 м 
[Sc]
+12.9 +4 55 +13  1028.1  -0.6  731  281           
15 01.11.13 100 (В) 20000 м    1/1 600 м 
[Sc]
+7.4 -0.2 59 +6  1029.1  0.1  731  287    +13       
18 01.11.13 110 (В) 20000 м    ясно 
+3.8 +2.5 91 +3  1029.2  -0.5  730  290           
21 01.11.13 100 (В) 20000 м    ясно 
+3.8 +2.6 92 +2  1028.4  -0.8  730  290           
00 02.11.13 130 (ЮВ) 20000 м    8/8 500 м 
[Sc]
+5.4 +4.1 91 +4  1027.7  -0.3  730  288           
03 02.11.13 130 (ЮВ) 10 км  дымка  3/0 средняя 
[Ac trans]
+2.6 +2 96 +1  1027.7  -0.6  729  291  +2.6         
06 02.11.13 120 (ЮВ) 20000 м    3/3 300 м верхняя 
[St|Ci fib]
+6.5 +4.7 88 +5  1026.9  729  286  +2.5         
09 02.11.13 150 (ЮВ) 6{11}  20000 м    ясно 
+12.4 +6.3 66 +11  1024.6  -1  728  280           
12 02.11.13 140 (ЮВ) 5{10}  20000 м    ясно 
+14.4 +4.6 52 +14  1023  -1.2  727  278           
15 02.11.13 130 (ЮВ) 20000 м    ясно 
+8.3 +4.3 76 +7  1024  0.1  727  284    +14.7       
18 02.11.13 170 (Ю) 20000 м    ясно 
+5.4 +3.7 89 +4  1023.8  -0.8  727  287           
21 02.11.13 160 (Ю) 20000 м    ясно 
+5.9 +4.3 89 +4  1022.9  -0.7  726  286           
00 03.11.13 140 (ЮВ) 10 км    ясно 
+4.1 +3.3 95 +2  1022.4  -0.9  726  287           
03 03.11.13 140 (ЮВ) 0200 м  туман  ?/?  
+4.4 +3.9 97 +2  1021.7  -0.5  725  287  +3.2         
06 03.11.13 130 (ЮВ) 0200 м  туман  ?/?  
+5.6 +5.1 97 +4  1021.9  0.4  725  286           
09 03.11.13 120 (ЮВ) 20000 м  {туман}  1/0 верхняя 
[Ci fib]
+11.3 +5.6 68 +10  1019.6  -1.1  725  279           
12 03.11.13 120 (ЮВ) 20000 м  {туман}  3/0 верхняя 
[Ci fib]
+13.9 +6.3 60 +13  1017.5  -1.5  724  276           
15 03.11.13 130 (ЮВ) 20000 м    3/0 верхняя 
[Ci fib]
+6.1 +4.3 88 +5  1019.6  0.5  724  285    +14.4       
18 03.11.13 180 (Ю) 20000 м    ясно 
+5.9 +3.6 85 +5  1019.3  -0.3  724  285           
21 03.11.13 280 (З) 20000 м    ясно 
+7.3 +3.8 78 +7  1019.1  0.1  724  283           
00 04.11.13 280 (З) 20000 м    ясно 
+8.4 +4 74 +8  1019.1  0.1  724  282           
03 04.11.13 290 (З) 20000 м    3/0 средняя 
[Ac trans]
+8.8 +3.8 71 +8  1019.5  0.5  724  282  +4.1         
06 04.11.13 180 (Ю) 20000 м    8/0 верхняя 
[Ci]
+12 +5.3 64 +13  1019.3  0.4  725  279           
09 04.11.13 110 (В) 20000 м    10/0 верхняя 
[Ci]
+15.8 +6.9 55 +17  1018.7  0.2  725  275           
12 04.11.13 110 (В) 20000 м    8/0 верхняя 
[Ci]
+16.3 +6.7 53 +17  1018.1  -0.5  724  274           
15 04.11.13 140 (ЮВ) 20000 м    6/0 средняя, верхняя 
[Ac trans|Ci sp]
+11.9 +5.9 67 +12  1019.7  -0.5  725  279    +16.4       
18 04.11.13 160 (Ю) 20000 м    3/0 средняя 
[Ac trans]
+11.3 +0.2 46 +11  1019.9  725  280           
21 04.11.13 230 (ЮЗ) 20000 м    3/0 верхняя 
[Ci fib]
+11.7 -0.8 42 +12  1020.2  0.4  725  280           
00 05.11.13 170 (Ю) 20000 м    3/0 верхняя 
[Ci fib]
+7.4 -0.1 59 +7  1020.4  -0.6  725  284           
03 05.11.13 180 (Ю) 20000 м    3/0 средняя, верхняя 
[Ac trans|Ci fib]
+9.8 +0.2 51 +9  1019.7  -0.3  724  282  +7         
06 05.11.13 130 (ЮВ) 20000 м    5/0 верхняя 
[Ci fib]
+16 -0.4 33 +16  1019.4  0.9  725  276           
09 05.11.13 140 (ЮВ) 20000 м    9/0 верхняя 
[Ci]
+19.4 +0.4 28 +20  1018.4  -0.4  725  273           
12 05.11.13 130 (ЮВ) 20000 м    9/0 верхняя 
[Ci]
+21.1 -1.2 22 +21  1017.1  -0.9  724  271           
15 05.11.13 130 (ЮВ) 20000 м    3/0 верхняя 
[Ci fib]
+13.6 -1.5 35 +13  1018.4  0.1  724  278    +21.3       
18 05.11.13 150 (ЮВ) 20000 м    3/0 средняя 
[Ac trans]
+10.5 +0.5 50 +10  1018.8  -0.2  724  281           
21 05.11.13 140 (ЮВ) 20000 м    ясно 
+11.3 -2.8 37 +11  1017.8  -0.8  723  280           
00 06.11.13 140 (ЮВ) 20000 м    ясно 
+9.4 -4.3 38 +8  1017.2  -1  723  282           
03 06.11.13 170 (Ю) 20000 м    8/0 средняя 
[Ac trans]
+7.9 -1.7 51 +7  1017.4  723  283  +5.5         
06 06.11.13 150 (ЮВ) 20000 м    8/0 средняя 
[Ac trans]
+10.4 -0.6 46 +10  1017.3  0.4  723  281           
09 06.11.13 120 (ЮВ) 20000 м    8/0 средняя, верхняя 
[Ac trans|Ci fib]
+14.2 +2 44 +14  1015.8  -0.7  722  276           
12 06.11.13 080 (В) 20000 м    10/0 средняя, верхняя 
[Ac und|Ci fib]
+16 +3.4 43 +16  1014.3  -1  722  274           
15 06.11.13 090 (В) 20000 м    3/0 средняя 
[Ac trans]
+6.6 +3.8 82 +6  1016.4  0.2  722  283    +16.6       
18 06.11.13 110 (В) 20000 м    3/0 средняя 
[Ac lent]
+5.2 +2.9 85 +4  1016.4  -0.2  722  285           
21 06.11.13 190 (Ю) 20000 м    3/0 средняя 
[Ac trans]
+4.6 +1 77 +4  1015.7  -0.8  721  285           
00 07.11.13 220 (ЮЗ) 20000 м    ясно 
+7.8 -2.6 48 +8  1014.5  -0.6  720  282           
03 07.11.13 210 (ЮЗ) 20000 м    3/0 средняя 
[Ac trans]
+11.9 -11 19 +13  1013.5  -0.2  720  279  +3.5         
06 07.11.13 130 (ЮВ) 20000 м    4/0 верхняя 
[Ci fib]
+16.5 -3.1 26 +18  1012.1  -0.5  720  274           
09 07.11.13 140 (ЮВ) 20000 м    10/0 средняя, верхняя 
[Ac trans|Ci fib]
+16.5 -0.4 32 +17  1011.2  -0.8  719  273           
12 07.11.13 100 (В) 20000 м    8/0 средняя, верхняя 
[Ac trans|Ci fib]
+17.2 +4 41 +18  1010.5  -0.5  719  272           
15 07.11.13 170 (Ю) 20000 м    8/0 средняя 
[Ac trans]
+13.8 +2.4 46 +14  1011.4  0.1  719  275    +19.1       
18 07.11.13 180 (Ю) 20000 м    9/3 1000 м средняя 
[Sc|Ac trans]
+14 +1.5 43 +14  1011.1  -0.2  719  275           
21 07.11.13 290 (З) 20000 м    10/3 1000 м средняя 
[Sc|Ac und]
+13.1 +5.6 60 +12  1012.1  0.9  720  276           
00 08.11.13 300 (СЗ) 9-15{15}  20000 м    8/3 1000 м средняя 
[Sc|Ac trans]
+7.9 +5.8 87 +5  1014.7  0.9  721  281           
03 08.11.13 290 (З) 20000 м    10/8 600 м средняя 
[Sc|Ac und]
+6.1 +4.5 89 +4  1018.5  3.3  723  284  +6.1         
06 08.11.13 280 (З) 4{10}  20000 м  слаб. дождь  10/10 300 м 
+5 +3.6 91 +3  1021.6  2.7  725  286  +5         
09 08.11.13 260 (З) 4000 м  дымка{дождь}  10/10 360 м 
[St]
+5.9 +4.5 91 +4  1022.5  726  286           
12 08.11.13 260 (З) 5{11}  20000 м  {дождь}  4/4 600 м кучево-дожд. 
[Cb calv]
+8.2 +3.4 72 +7  1023.3  1.2  727  284           
15 08.11.13 260 (З) 20000 м    5/3 600 м кучево-дожд., средняя 
[Cb calv|Ac trans]
+5.5 +3.1 84 +4  1026.1  2.1  728  287    +8.5     
18 08.11.13 240 (ЮЗ) 20000 м    ясно 
+1.4 +0.4 93 1028.2  1.1  729  292           
21 08.11.13 260 (З) 20000 м    ясно 
+2.2 +1.4 95 +1  1028.5  0.5  730  291           
00 09.11.13 240 (ЮЗ) 20000 м    ясно 
+1.8 +0.7 92 +1  1029  0.3  730  292           
03 09.11.13 220 (ЮЗ) 20000 м    ясно 
+0.8 +0.1 95 +1  1029.4  0.3  730  293  +0.4         
06 09.11.13 130 (ЮВ) 20000 м    ясно 
+6.1 +3.3 82 +5  1029.4  1.1  731  287           
09 09.11.13 120 (ЮВ) 20000 м    1/1 600 м 
[Sc diur, vesp]
+10 +3.4 63 +9  1027.4  -1.2  730  283           
12 09.11.13 090 (В) 20000 м    3/0 верхняя 
[Ci fib]
+10.7 +1.7 54 +10  1026.4  -0.8  729  282           
15 09.11.13 090 (В) 20000 м    3/0 верхняя 
[Ci fib]
+4.6 +1.6 81 +3  1028  -0.8  730  289    +11.1       
18 09.11.13 100 (В) 20000 м    ясно 
+2.9 +1.1 88 +1  1027.7  -0.6  729  290           
21 09.11.13 100 (В) 20000 м    ясно 
+3.3 +1.5 88 +1  1026.6  -0.9  728  290           
00 10.11.13 120 (ЮВ) 10 км    ясно 
+1.4 +0.3 92 -1  1026.4  -0.6  728  292           
03 10.11.13 120 (ЮВ) 10 км    ясно 
+2.1 +1.1 93 -1  1025.8  -0.5  728  291  +1.4         
06 10.11.13 120 (ЮВ) 10-14{15}  4000 м  дымка  10/10 210 м 
[St]
+3.5 +2.5 93 -1  1025.2  -0.3  728  289           
09 10.11.13 130 (ЮВ) 11-16{17}  20000 м    3/3 300 м 
[St]
+8.3 +2.9 69 +5  1023  -1.1  727  284           
12 10.11.13 130 (ЮВ) 9-12{17}  20000 м    10/8 500 м средняя 
[Sc|Ac und]
+6.8 +3.6 80 +4  1023  -0.3  726  285           
15 10.11.13 130 (ЮВ) 20000 м    10/8 500 м средняя 
[Sc|Ac und]
+6.2 +4.5 89 +4  1022.7  -0.3  726  285    +8.6       
18 10.11.13 140 (ЮВ) 4000 м  дымка  ясно 
+4.6 +3.9 95 +2  1021.8  -1.1  725  287           
21 10.11.13 130 (ЮВ) 7-11{12}  10 км    10/10 150 м 
[St]
+5.8 +4.9 94 +3  1021.4  -0.1  725  285           
00 11.11.13 130 (ЮВ) 8-10{11}  20000 м    10/10 210 м 
[St]
+5.4 +4.4 93 +2  1020.9  -0.6  725  286           
03 11.11.13 130 (ЮВ) 1300 м  дымка  10/10 50 м 
[St]
+4.8 +4.2 96 +2  1020.8  -0.2  725  286  +4.6         
06 11.11.13 130 (ЮВ) 0800 м  туман  ?/?  
+4.5 +4 97 +3  1021.7  0.8  725  287  +4.5         
09 11.11.13 110 (В) 20000 м  {туман}  8/3 600 м верхняя 
[Sc|Ci fib]
+13.1 +6.1 62 +13  1019.5  -0.5  725  278           
12 11.11.13 100 (В) 20000 м  {туман}  4/0 средняя, верхняя 
[Ac trans|Ci fib]
+13.3 +6.6 64 +13  1020.1  0.7  725  278           
15 11.11.13 110 (В) 20000 м    6/0 верхняя 
[Ci fib]
+8.1 +5.8 85 +7  1022.2  726  283    +13.8       
18 11.11.13 190 (Ю) 20000 м    3/0 верхняя 
[Ci fib]
+6.1 +5 93 +6  1022.6  726  285           
21 11.11.13 110 (В) 20000 м    3/0 верхняя 
[Ci fib]
+4.4 +3.8 96 +4  1022.5  -0.4  726  287           
00 12.11.13 110 (В) 20000 м    3/0 верхняя 
[Ci fib]
+4.7 +4.1 96 +4  1022.3  0.1  726  287           
03 12.11.13 080 (В) 0200 м  туман  ясно 
+4.2 +3.7 97 +5  1022.4  726  287  +4         
06 12.11.13 120 (ЮВ) 20000 м  {туман}  4/0 верхняя 
[Ci fib]
+8 +7.5 97 +9  1022.1  0.5  726  283  +3.7         
09 12.11.13 100 (В) 20000 м    4/1 300 м верхняя 
[Sc|Ci fib]
+13.2 +7.8 70 +14  1020.6  -0.5  726  278           
12 12.11.13 040 (СВ) 20000 м    6/3 600 м верхняя 
[Sc|Ci]
+13.3 +7.6 68 +14  1020.6  726  277           
15 12.11.13 050 (СВ) 1200 м  дымка  8/8 50 м 
[St]
+8.1 +7.4 95 +8  1022.3  0.7  726  283    +13.7       
18 12.11.13 120 (ЮВ) 0100 м  туман  ?/?  
+7.5 +7 97 +7  1022.3  0.1  726  283           
21 12.11.13 140 (ЮВ) 0050 м  туман  ?/?  
+6.7 +6.3 97 +7  1022.1  -0.4  726  284           
00 13.11.13 160 (Ю) 0100 м  туман  ?/?  
+6.1 +5.6 97 +6  1021.5  -0.7  725  285           
03 13.11.13 310 (СЗ) 0100 м  слаб. морось{туман}  ?/?  
+5.2 +4.7 97 +5  1022.1  0.4  726  286  +5.2    0.0     
06 13.11.13 180 (Ю) 0100 м  туман{морось}  ?/?  
+5.5 +5 97 +5  1021.9  -0.2  725  286  +5.1         
09 13.11.13 350 (С) 0500 м  туман  ?/?  
+6.3 +5.8 97 +7  1021.2  -0.5  725  285           
12 13.11.13 290 (З) 0900 м  туман  ?/?  
+6.6 +6.2 97 +6  1020.6  -0.4  725  284           
15 13.11.13 140 (ЮВ) 3000 м  дымка{туман}  ясно 200 м 
[St]
+6.9 +6.4 97 +8  1020.6  725  284    +7  0.4     
18 13.11.13 190 (Ю) 2000 м  дымка{туман}  ?/? 150 
[St]
+6.3 +5.9 97 +6  1019.6  -1  724  284           
21 13.11.13 190 (Ю) 2000 м  дымка  10/5 600 м средняя 
[Sc|Ac und]
+6.6 +6.2 97 +8  1018.7  -0.8  723  284           
00 14.11.13 240 (ЮЗ) 4000 м  дымка{морось}  10/6 600 м средняя 
[Sc|Ac und]
+7.6 +7.2 97 +6  1018.7  0.2  724  282           
03 14.11.13 270 (З) 10 км    10/8 300 м средняя 
[Sc|Ac und]
+6.9 +5.9 93 +6  1018.1  -0.7  723  283  +6.1    0.0     
06 14.11.13 230 (ЮЗ) 10 км  {морось}  10/10 420 м 
[Sc]
+5.8 +4.3 90 +4  1018.6  0.3  723  285  +5.3         
09 14.11.13 240 (ЮЗ) 20000 м    10/6 870 м средняя 
[Sc|Ac und]
+6.7 +3.2 78 +5  1017.1  -1.3  722  283           
12 14.11.13 250 (З) 10 км  слаб. дождь  10/6 630 м средняя 
[Sc|Ac und]
+6.2 +4.7 90 +4  1017  -0.2  722  284           
15 14.11.13 230 (ЮЗ) 20000 м  {дождь}  10/10 300 м 
[St]
+5.7 +4.3 91 +5  1017.4  -0.2  722  284    +7.1  0.5     
18 14.11.13 260 (З) 8-10  20000 м  {дождь}  9/8 540 м средняя 
[Sc|Ac trans]
+6 +4.1 88 +3  1017  -0.4  722  284           
21 14.11.13 280 (З) 10-16{16}  4000 м  слаб. ливневой дождь  10/6 240 м кучево-дожд., средняя 
[Cb cap|Ac und]
+4.5 +3 90 +1  1017.6  0.3  722  286           
00 15.11.13 270 (З) 7-11  20000 м  {ливн. осадки}  10/8 750 м кучево-дожд., средняя 
[Cb calv|Ac und]
+1.6 -1.6 79 -2  1019.9  1.6  723  290           
03 15.11.13 280 (З) 20000 м    10/8 300 м кучево-дожд., средняя 
[Cb calv|Ac und]
+1.8 -0.9 82 -2  1020.8  0.8  724  290  +1.1       
06 15.11.13 280 (З) 8-12{14}  20000 м    10/10 720 м 
[Sc diur, vesp]
+1.7 -1.8 78 -2  1023.3  2.3  726  291           
09 15.11.13 280 (З) 6-10{13}  20000 м    10/8 720 м средняя 
[Sc|Ac As]
+2.8 -2 71 1023.5  0.4  726  290           
12 15.11.13 300 (СЗ) 6{11}  20000 м    10/8 870 м средняя 
[Sc|Ac und]
+3.1 -2.4 67 1024.2  0.7  727  290           
15 15.11.13 300 (СЗ) 4{10}  20000 м    9/5 1000 м средняя 
[Sc|Ac und]
+2.5 -2.8 68 1026.2  1.8  728  291    +3.7       
18 15.11.13 300 (СЗ) 20000 м    10/6 1000 м средняя 
[Sc|Ac und]
+2.2 -1.7 75 +2  1027.6  1.3  729  292           
21 15.11.13 260 (З) 20000 м    10/8 960 м средняя 
[Sc|Ac As]
+2.1 -3.5 66 +3  1027.9  0.2  729  292           
00 16.11.13 320 (СЗ) 20000 м    9/4 1000 м средняя 
[Sc|Ac trans]
+0.8 -2.7 77 +1  1027.6  -0.5  729  293           
03 16.11.13 тихо ()   20000 м    3/0 средняя 
[Ac trans]
-2.5 -3.2 95 -3  1027.1  -1.1  728  296  -2.6         
06 16.11.13 120 (ЮВ) 20000 м    3/0 верхняя 
[Ci fib]
-2.5 -3.2 95 -2  1027.1  728  296  -2.6         
09 16.11.13 050 (СВ) 20000 м    3/0 средняя 
[Ac trans]
+2.7 -4.2 60 +3  1026.1  0.2  728  291           
12 16.11.13 330 (СЗ) 20000 м    6/0 верхняя 
[Ci fib]
+4.6 -4.4 52 +3  1023.5  -2.2  726  288           
15 16.11.13 320 (СЗ) 20000 м    4/0 верхняя 
[Ci fib]
+0.4 -3.2 77 1023.8  -0.5  726  292    +5.8       
18 16.11.13 190 (Ю) 20000 м    10/8 840 м средняя 
[Sc|Ac und]
+0.7 -2.5 79 -1  1022.6  -0.5  725  292           
21 16.11.13 330 (СЗ) 20000 м    10/8 700 м средняя 
[Sc|Ac und]
-0.7 -3.5 81 1023  725  293           
00 17.11.13 300 (СЗ) 20000 м    10/8 630 м средняя 
[Sc|Ac und]
-0.7 -4.2 77 -2  1023.2  0.2  725  293           
03 17.11.13 250 (З) 20000 м    10/10 300 м 
[Sc]
-0.5 -4.2 76 -2  1023  0.1  725  293  -0.9         
06 17.11.13 270 (З) 20000 м    10/8 840 м средняя 
[Sc|Ac und]
+0.6 -2.6 79 -2  1024.2  1.4  726  292           
09 17.11.13 230 (ЮЗ) 20000 м    10/8 1000 м средняя 
[Sc|Ac und]
+2.7 -2 71 +1  1023.6  -0.2  726  290           
12 17.11.13 220 (ЮЗ) 20000 м    8/5 600 м средняя 
[Sc|Ac trans]
+4.6 -1.3 65 +4  1022.4  -0.7  726  288           
15 17.11.13 240 (ЮЗ) 20000 м    3/0 средняя 
[Ac trans]
-0.2 -1.8 89 -1  1023.7  -0.7  726  293    +5       
18 17.11.13 270 (З) 20000 м    ясно 
+0.5 -1.4 87 1024  0.4  726  292           
21 17.11.13 240 (ЮЗ) 20000 м    ясно 
-1.2 -3.6 84 -3  1024.4  0.1  726  294           
00 18.11.13 250 (З) 20000 м    ясно 
+0.8 -2.4 79 -2  1024.1  0.1  726  292           
03 18.11.13 220 (ЮЗ) 20000 м    3/3 600 м 
[Sc]
-0.4 -2.6 85 -3  1024.4  0.1  726  293  -1.8         
06 18.11.13 190 (Ю) 20000 м    9/8 1200 м средняя 
[Sc|Ac trans]
+3.8 +0.2 77 +3  1024.8  1.3  727  289  -1.8         
09 18.11.13 270 (З) 20000 м    10/8 1080 м средняя 
[Sc|Ac und]
+8.2 +1.9 64 +6  1023.7  -0.3  727  284           
12 18.11.13 290 (З) 5{11}  20000 м    10/6 700 м средняя 
[Sc|Ac und]
+7.8 +3.4 74 +6  1024.6  0.8  728  285           
15 18.11.13 310 (СЗ) 4000 м  дымка{морось}  10/6 100 м средняя 
[St|Ac und]
+5.3 +4.4 94 +4  1026.9  1.6  729  287    +8.9  0.3     
18 18.11.13 360 (С) 4000 м  дымка{морось}  10/10 150 м 
[St]
+4.1 +3.1 93 +3  1029.6  2.4  731  290           
21 18.11.13 050 (СВ) 10 км    10/8 700 м средняя 
[Sc|Ac und]
+3.3 +2 91 +3  1030.9  731  291           
00 19.11.13 060 (СВ) 10 км    10/8 750 м средняя 
[Sc|Ac As]
+2.8 +1.5 91 +1  1031.8  0.7  732  292           
03 19.11.13 080 (В) 10 км    10/6 600 м средняя 
[Sc|Ac As]
+1.5 +0.5 93 -1  1033  0.9  733  293  +1.5         
06 19.11.13 100 (В) 4000 м  дымка  8/8 570 м 
[Sc]
+2.3 +1.2 92 -1  1033.6  0.8  733  293  +0.7         
09 19.11.13 110 (В) 10-14{14}  20000 м    4/4 600 м 
[Sc]
+5.6 -0.3 66 +2  1032.3  -0.7  733  289           
12 19.11.13 110 (В) 12-16{16}  20000 м    4/4 600 м 
[Sc]
+4.6 -1.9 63 1031.9  -0.5  732  290           
15 19.11.13 100 (В) 10-14  20000 м    6/0 средняя 
[Ac trans]
+2.2 -2.4 72 -2  1031.9  -0.4  732  293    +6       
18 19.11.13 110 (В) 10-14{16}  20000 м    3/0 средняя 
[Ac trans]
+1 -4.2 68 -4  1031.8  -0.4  732  294           
21 19.11.13 130 (ЮВ) 11-15{16}  20000 м    1/0 средняя 
[Ac trans]
+0.4 -2.2 83 -5  1031.3  -0.6  731  294           
00 20.11.13 120 (ЮВ) 7-11{20}  20000 м    6/6 480 м 
[Sc]
+1 -1.6 83 -3  1030.9  -0.2  731  294           
03 20.11.13 130 (ЮВ) 20000 м    10/6 300 м средняя 
[St|Ac As]
+1.6 -0.6 85 -2  1029.1  -1.6  730  292  -0.2         
06 20.11.13 130 (ЮВ) 8-10{15}  20000 м    10/8 330 м средняя 
[St|Ac und]
+2.2 -0 85 -2  1028.4  -1.6  730  292           
09 20.11.13 100 (В) 8-11{12}  20000 м    9/8 540 м средняя 
[Sc|Ac trans]
+5.4 +0.7 72 +2  1025.6  -2  728  288           
12 20.11.13 110 (В) 7{11}  20000 м    9/0 верхняя 
[Ci fib]
+7.6 +0.6 61 +5  1023.8  -1.3  727  285           
15 20.11.13 130 (ЮВ) 20000 м    3/0 верхняя 
[Ci fib]
+1.9 -0.5 84 1024.8  0.1  727  291    +7.9       
18 20.11.13 130 (ЮВ) 20000 м    3/0 верхняя 
[Ci fib]
-0.4 -1.4 93 -2  1024  -1.2  726  293           
21 20.11.13 140 (ЮВ) 20000 м    8/0 верхняя 
[Ci fib]
+1.5 +0.3 92 1022.4  -1.2  725  290           
00 21.11.13 120 (ЮВ) 20000 м    8/0 средняя 
[Ac trans]
+0.6 -0.3 94 1021.8  -0.7  725  291           
03 21.11.13 110 (В) 10 км    10/10 200 м 
[St]
+2.2 +1.6 96 +1  1020.3  -1.1  724  289  -0.4         
06 21.11.13 100 (В) 1000 м  дымка  10/10 100 м 
[St]
+3 +2.4 96 +2  1019.9  -0.2  724  288           
09 21.11.13 110 (В) 4000 м    10/10 210 м 
[St]
+4.1 +2.8 91 +3  1018.3  -1.3  723  286           
12 21.11.13 090 (В) 20000 м    10/3 300 м средняя 
[St|Ac und]
+6.2 +2.6 78 +5  1017.3  -0.5  722  284           
15 21.11.13 090 (В) 20000 м    10/0 средняя 
[Ac und]
+5.1 +2 80 +3  1017.9  0.3  723  285    +6.4       
18 21.11.13 110 (В) 20000 м    10/0 средняя 
[Ac und]
+4 +1.6 84 +3  1018  0.1  722  287           
21 21.11.13 130 (ЮВ) 20000 м    10/0 средняя, верхняя 
[Ac As|Ci fib]
+3.5 +1.7 88 +2  1017.8  -0.3  722  287           
00 22.11.13 120 (ЮВ) 20000 м    10/5 210 м средняя 
[St|Ac und]
+3.5 +2.7 94 +2  1017.8  722  287           
03 22.11.13 110 (В) 20000 м    6/0 средняя, верхняя 
[Ac trans|Ci fib]
+3.1 +2.4 95 +2  1018.1  0.2  722  287  +2.9         
06 22.11.13 170 (Ю) 10 км    8/0 средняя 
[Ac trans]
+4.2 +3.6 96 +3  1018.9  723  286  +2.4         
09 22.11.13 080 (В) 20000 м    9/0 средняя, верхняя 
[Ac trans|Ci fib]
+9.3 +4.3 71 +9  1017.5  -0.4  723  281           
12 22.11.13 110 (В) 20000 м    8/0 средняя, верхняя 
[Ac trans|Ci fib]
+9.1 +3.9 70 +8  1017.8  0.2  723  281           
15 22.11.13 120 (ЮВ) 20000 м    3/0 средняя 
[Ac trans]
+4.9 +2.3 83 +2  1018.8  0.1  723  286    +10.7       
18 22.11.13 120 (ЮВ) 20000 м    3/0 средняя 
[Ac trans]
+3.5 +1.3 85 +1  1019.4  0.2  723  287           
21 22.11.13 130 (ЮВ) 20000 м    ясно 
+1.8 +0.5 91 -1  1019.1  0.2  723  289           
00 23.11.13 130 (ЮВ) 20000 м    ясно 
+0.5 -0.4 94 -2  1018.9  -0.5  723  291           
03 23.11.13 130 (ЮВ) 0200 м  туман  ?/?  
+0.7 +0.2 97 -2  1018.8  723  290  -0.4         
06 23.11.13 130 (ЮВ) 4000 м  дымка{туман}  9/9 100 м 
[St]
+1.2 +0.7 96 -2  1019.2  0.5  723  290           
09 23.11.13 130 (ЮВ) 6{10}  20000 м    3/3 600 м 
[Sc]
+6.1 +1.7 73 +4  1017.6  -0.5  722  284           
12 23.11.13 100 (В) 20000 м    ясно 
+6.5 +0.8 67 +4  1017.2  -0.4  722  284           
15 23.11.13 140 (ЮВ) 20000 м    ясно 
+0.9 -0.6 90 -2  1019.2  0.8  723  290    +8       
18 23.11.13 150 (ЮВ) 20000 м    ясно 
+1.7 +0.1 89 -1  1018.5  -0.5  722  289           
21 23.11.13 120 (ЮВ) 5{10}  20000 м    ясно 
+0.8 -0.7 90 -2  1017.7  -1  722  290           
00 24.11.13 140 (ЮВ) 20000 м    ясно 
+0.5 -0.7 92 -3  1017.3  -0.4  721  290           
03 24.11.13 140 (ЮВ) 4000 м  дымка  3/3 200 м 
[St]
-1 -1.6 96 -4  1017.8  0.2  722  292  -1.6         
06 24.11.13 130 (ЮВ) 4000 м  дымка{туман}  ясно 
+0.9 -0.6 90 -2  1017.5  0.1  722  290  -1.7         
09 24.11.13 110 (В) 20000 м    ясно 
+6.1 +1.7 73 +5  1016.4  722  284           
12 24.11.13 090 (В) 20000 м    ясно 
+8.6 +1.7 62 +7  1015.1  -0.8  721  281           
15 24.11.13 080 (В) 20000 м    3/0 средняя 
[Ac trans]
+3.8 +0.6 80 +3  1016.3  0.2  721  286    +8.9       
18 24.11.13 160 (Ю) 20000 м    ясно 
+0.9 -0.6 90 1016.6  -0.3  721  290           
21 24.11.13 220 (ЮЗ) 20000 м    ясно 
+4 +0.5 78 +4  1015.4  -0.5  721  286           
00 25.11.13 220 (ЮЗ) 20000 м    ясно 
+5.2 -1.2 63 +5  1014.9  -0.3  720  285           
03 25.11.13 180 (Ю) 20000 м    ясно 
+5.3 -2.3 58 +6  1014.7  -0.2  720  285  +0.7         
06 25.11.13 170 (Ю) 20000 м    1/0 верхняя 
[Ci fib]
+10 +2.3 59 +10  1013.9  -0.2  720  280           
09 25.11.13 120 (ЮВ) 20000 м    ясно 
+16 -0.9 31 +17  1012  -0.9  720  274           
12 25.11.13 090 (В) 20000 м    ясно 
+14.7 +2.6 44 +15  1011.8  -0.3  720  275           
15 25.11.13 150 (ЮВ) 20000 м    3/0 средняя 
[Ac trans]
+8.4 +3.3 70 +8  1013.3  0.3  720  281    +16.2       
18 25.11.13 170 (Ю) 20000 м    8/0 средняя 
[Ac trans]
+9.6 +2.1 59 +10  1012.8  -0.3  720  280           
21 25.11.13 180 (Ю) 20000 м    3/0 средняя 
[Ac trans]
+8.1 +2.3 67 +8  1012.7  -0.3  719  281           
00 26.11.13 170 (Ю) 20000 м    ясно 
+8.8 +1.5 60 +8  1012.4  -0.2  719  280           
03 26.11.13 180 (Ю) 20000 м    3/0 верхняя 
[Ci fib]
+10 +0.3 51 +10  1011.7  -0.5  719  279  +7         
06 26.11.13 160 (Ю) 20000 м    9/3 1000 м средняя, верхняя 
[Sc|Ac As|Ci fib]
+12.8 +3.4 53 +13  1011.1  719  276           
09 26.11.13 220 (ЮЗ) 20000 м    10/3 1000 м средняя 
[Sc|Ac und]
+15.4 +3.3 44 +16  1009.9  -0.7  718  273           
12 26.11.13 330 (СЗ) 20000 м    10/4 1000 м средняя 
[Sc|Ac und]
+12.9 +3.9 54 +13  1011.3  0.9  719  276           
15 26.11.13 320 (СЗ) 20000 м  в посл. час дождь  10/4 600 м средняя 
[Sc|Ac As]
+10.2 +6.6 78 +10  1013  1.1  720  278    +16.8  0.0     
18 26.11.13 160 (Ю) 10 км  слаб. дождь  10/10 1000 м 
[Ns]
+8.7 +7.9 95 +9  1013.5  0.2  720  280           
00 27.11.13 290 (З) 4000 м  дымка{дождь}  10/8 210 м средняя 
[St|Ac As]
+9.5 +8.9 96 +12  1013.7  720  279           
03 27.11.13 030 (СВ) 0200 м  слаб. дождь{туман}  10/10 100 м 
[Frnb|Ns]
+8.7 +8.2 97 +9  1013.5  -0.3  720  280  +8.2       
06 27.11.13 тихо ()   0200 м  дождь{туман}  ?/?  
+8.4 +7.9 97 +8  1013.5  -0.1  720  280           
09 27.11.13 030 (СВ) 0600 м  дождь{туман}  ?/?  
+8.3 +7.8 97 +9  1012.9  -0.6  719  280           
12 27.11.13 330 (СЗ) 4000 м  дождь{туман}  10/10 180 м 
[Frnb|Ns]
+4.8 +4.3 97 +3  1014.7  720  284           
15 27.11.13 340 (С) 4000 м  слаб. дождь  10/10 120 м 
[Frnb|Ns]
+3.5 +3.1 97 +2  1016.5  721  286    +8.7  23     
18 27.11.13 330 (СЗ) 0700 м  дождь{туман}  ?/?  
+1.8 +1.4 97 1018.2  1.3  722  289           
21 27.11.13 330 (СЗ) 0800 м  слаб. морось{дождь}  ?/?  
+0.3 -0.1 97 -1  1019.8  1.2  723  291           
00 28.11.13 290 (З) 2000 м  слаб. морось{дождь}  10/10 150 м 
[St]
-0.1 -0.5 97 -3  1020.1  0.2  723  292           
03 28.11.13 280 (З) 1500 м  дымка{морось, туман}  10/10 100 м 
[St]
-0.4 -0.7 98 -3  1020.6  0.5  724  292  -0.5       
06 28.11.13 270 (З) 4000 м  дымка{морось, туман}  10/10 180 м 
[St]
-0.1 -0.8 95 -3  1021.3  0.7  724  292  -0.5         
09 28.11.13 270 (З) 6{10}  4000 м  дымка  10/10 180 м 
[St]
-0.6 -1.4 94 -4  1020.5  -0.8  724  292           
12 28.11.13 270 (З) 6-10{11}  10 км    10/10 330 м 
[St]
-0.4 -2.2 88 -4  1019  -1.4  722  292           
15 28.11.13 260 (З) 10 км    8/8 330 м 
[St]
-1 -2.8 88 -5  1018.6  -0.5  722  292    -0.1       
18 28.11.13 250 (З) 10-14{14}  20000 м    3/3 300 м 
[Sc]
-0.4 -3.5 80 -5  1017.7  -0.8  722  291           
21 28.11.13 270 (З) 7{14}  20000 м    1/0 средняя 
[Ac trans]
+0.7 -8 52 -3  1016.7  -0.7  721  291           
00 29.11.13 270 (З) 7-11{13}  20000 м    8/4 600 м средняя 
[Sc|Ac trans]
+3.2 -0.8 75 1014.9  -1.2  720  287           
03 29.11.13 230 (ЮЗ) 20000 м    3/0 средняя 
[Ac trans]
+2.1 -0.5 83 +1  1012.8  -2.2  718  287  -1.1         
06 29.11.13 250 (З) 6{12}  20000 м  в посл. час ливневой дождь  10/6 330 м кучево-дожд., средняя 
[Cb calv|Ac und]
+4 +1.8 85 +1  1013.3  0.9  719  285           
09 29.11.13 250 (З) 20000 м  слаб. ливневой дождь  10/8 400 м кучево-дожд., средняя 
[Cb calv|Ac und]
+3.9 +2.8 93 +2  1012.4  -0.9  719  285           
12 29.11.13 240 (ЮЗ) 20000 м  слаб. ливневой дождь  10/8 420 м кучево-дожд., средняя 
[Cb calv|Ac und]
+2.5 +1.5 93 1012.1  -0.5  718  286           
15 29.11.13 210 (ЮЗ) 20000 м  {ливн. осадки}  10/5 300 м средняя 
[Sc diur, vesp|Ac und]
+2.8 +1.8 93 +2  1012.7  0.6  719  286    +4.8     
18 29.11.13 260 (З) 20000 м  слаб. дождь{ливн. осадки}  10/5 600 м средняя 
[Sc|Ac und]
+3.2 +2.1 92 +2  1012.9  0.3  719  286           
21 29.11.13 250 (З) 20000 м  {дождь}  10/3 600 м средняя 
[Sc|Ac und]
+1.9 +0.9 93 1013.6  0.4  719  287           
00 30.11.13 280 (З) 4000 м  слаб. ливневой снег{дождь}  10/6 120 м кучево-дожд., средняя 
[Cb calv|Ac und]
+0.4 -0.4 94 -2  1015.6  1.5  720  290           
03 30.11.13 260 (З) 0050 м  {ливн. осадки}  10/6 100 м кучево-дожд., средняя 
[Cb calv|Ac und]
+0.5 -0.1 96 -2  1017.2  1.5  721  290  +0       
06 30.11.13 260 (З) 6{10}  20000 м  {ливн. осадки}  4/4 300 м кучево-дожд. 
[Cb calv]
+1.2 -0.6 88 -2  1019.9  2.7  723  290           
09 30.11.13 260 (З) 7-11{11}  20000 м    8/8 450 м кучево-дожд. 
[Cb calv]
+3.1 -0.3 78 1021.5  2.7  725  289           
12 30.11.13 260 (З) 7-12{13}  20000 м    4/4 600 м кучево-дожд. 
[Cb calv]
+2.5 -1.7 74 -1  1023.4  1.7  726  290           
15 30.11.13 270 (З) 20000 м    8/6 720 м средняя 
[Sc diur, vesp|Ac trans]
+1.5 -0.7 85 -1  1026.6  2.8  728  292    +4.2       
18 30.11.13 270 (З) 20000 м    8/6 720 м средняя 
[Sc diur, vesp|Ac trans]
+1.5 -0.7 85 -1  1026.6  2.8  728  292    +4.2       
21 30.11.13 280 (З) 20000 м    6/6 270 м 
[St]
+0.6 -0.6 92 -2  1030.1  1.1  731  294           
00 01.12.13 250 (З) 10 км    4/3 300 м средняя 
[St|Ac trans]
-1.1 -2.2 92 -2  1030.9  0.4  731  296           
03 01.12.13 200 (Ю) 20000 м    8/3 600 м средняя 
[Sc|Ac trans]
-0.4 -2 89 -3  1030  -0.7  730  295  -2.4         
06 01.12.13 200 (Ю) 20000 м    8/8 1200 м 
[Sc]
+1.2 -2.9 74 -1  1028.3  -1.3  729  293           
09 01.12.13 190 (Ю) 20000 м    10/0 средняя, верхняя 
[Ac trans|Cs]
+4.3 -2.2 63 +3  1026  -1.5  728  289           
12 01.12.13 200 (Ю) 20000 м    10/3 1000 м средняя 
[Sc|Ac und]
+4.5 -1.5 65 +3  1024.7  -1.2  727  288           
15 01.12.13 200 (Ю) 20000 м    10/8 870 м средняя 
[Sc|Ac und]
+4 -1.7 66 +2  1023.4  -1.4  726  289    +4.6       
18 01.12.13 190 (Ю) 20000 м    10/5 1000 м средняя 
[Sc|Ac und]
+4 -1.4 68 +3  1023  -0.3  726  288           
21 01.12.13 280 (З) 20000 м    8/0 средняя 
[Ac trans]
+3.9 -2.4 63 +3  1022.7  -0.3  726  289           
00 02.12.13 240 (ЮЗ) 20000 м    6/6 630 м 
[Sc]
+4.1 +1.5 83 +2  1020.9  -0.3  725  287           
03 02.12.13 200 (Ю) 20000 м    8/8 600 м 
[Sc]
+2.6 +0.1 84 +1  1019.4  -1.7  723  289  +1.2         
06 02.12.13 210 (ЮЗ) 20000 м    10/5 720 м средняя 
[Sc|Ac und]
+4.9 +0.6 74 +4  1018.2  -0.7  723  286           
Время (UTC), дата Ветер
(°,м/с) 
Видим.   Явления Облачность Т
(°С)
Тd
(°С)
f(%) Тe
(°С)
Pmin
(гПа)
dP
(гПа)
Po
(мм)
O2
(г/м3)
Тmin Tmax R s Состояние
почвы